When you browse on this site, cookies collect data to enhance your experience and personalize the content and advertising you see.
Visit our Privacy Policy to learn more. By continuing to use the site, you agree to this use of cookies and data.
  • In Romania
  • List of Countries
  • For 7 days
  • Water Temperature
  • Weather Map
  • Weather Widgets
  • user-avatar
    Login

    Hourly Weather Ocotal

    Today, 3 April, Friday

    Time Temperature Precipitation Wind Pressure Humidity
    00:00 +23°C° 0 mm 0 mps 707 mmHg 73%
    01:00 +24°C° 0 mm 1 mps 707 mmHg 76%
    02:00 +24°C° 0 mm 1 mps 707 mmHg 79%
    03:00 +23°C° 0 mm 1 mps 706 mmHg 83%
    04:00 +23°C° 0 mm 1 mps 707 mmHg 85%
    05:00 +22°C° 0 mm 1 mps 707 mmHg 87%
    06:00 +22°C° 0 mm 1 mps 707 mmHg 89%
    07:00 +25°C° 0 mm 1 mps 708 mmHg 77%
    08:00 +28°C° 0 mm 1 mps 708 mmHg 64%
    09:00 +31°C° 0 mm 1 mps 709 mmHg 51%
    10:00 +33°C° 0 mm 1 mps 709 mmHg 45%
    11:00 +35°C° 0 mm 1 mps 708 mmHg 39%
    12:00 +37°C° 0 mm 1 mps 708 mmHg 33%
    13:00 +37°C° 0 mm 1 mps 707 mmHg 31%
    14:00 +39°C° 0 mm 1 mps 706 mmHg 28%
    15:00 +39°C° 0 mm 1 mps 705 mmHg 26%
    16:00 +36°C° 0 mm 1 mps 705 mmHg 30%
    17:00 +34°C° 0 mm 1 mps 705 mmHg 33%
    18:00 +32°C° 0 mm 1 mps 705 mmHg 37%
    19:00 +30°C° 0.1 mm 1 mps 706 mmHg 45%
    20:00 +28°C° 0.1 mm 1 mps 706 mmHg 53%
    21:00 +27°C° 0.1 mm 1 mps 707 mmHg 60%
    22:00 +26°C° 0 mm 1 mps 707 mmHg 64%
    23:00 +25°C° 0 mm 1 mps 707 mmHg 67%

    Tomorrow, 4 April, Saturday

    Time Temperature Precipitation Wind Pressure Humidity
    00:00 +24°C° 0 mm 1 mps 706 mmHg 70%
    01:00 +24°C° 0 mm 1 mps 706 mmHg 72%
    02:00 +24°C° 0 mm 1 mps 706 mmHg 73%
    03:00 +24°C° 0 mm 1 mps 706 mmHg 74%
    04:00 +23°C° 0 mm 1 mps 706 mmHg 77%
    05:00 +22°C° 0 mm 1 mps 706 mmHg 80%
    06:00 +22°C° 0 mm 1 mps 706 mmHg 83%
    07:00 +25°C° 0 mm 1 mps 707 mmHg 71%
    08:00 +28°C° 0 mm 1 mps 708 mmHg 60%
    09:00 +32°C° 0 mm 1 mps 709 mmHg 48%
    10:00 +34°C° 0 mm 1 mps 708 mmHg 41%
    11:00 +36°C° 0 mm 1 mps 708 mmHg 34%
    12:00 +40°C° 0 mm 1 mps 707 mmHg 27%
    13:00 +39°C° 0 mm 1 mps 706 mmHg 25%
    14:00 +39°C° 0 mm 2 mps 706 mmHg 23%
    15:00 +39°C° 0 mm 2 mps 705 mmHg 22%
    16:00 +37°C° 0 mm 2 mps 705 mmHg 27%
    17:00 +35°C° 0 mm 2 mps 705 mmHg 32%
    18:00 +32°C° 0 mm 2 mps 705 mmHg 37%
    19:00 +30°C° 0 mm 2 mps 705 mmHg 44%
    20:00 +28°C° 0 mm 1 mps 706 mmHg 52%
    21:00 +25°C° 0 mm 0 mps 707 mmHg 59%
    22:00 +24°C° 0 mm 0 mps 707 mmHg 61%
    23:00 +23°C° 0 mm 0 mps 707 mmHg 63%

    Day after tomorrow, 5 April, Sunday

    Time Temperature Precipitation Wind Pressure Humidity
    00:00 +23°C° 0 mm 0 mps 706 mmHg 65%
    01:00 +24°C° 0 mm 1 mps 706 mmHg 67%
    02:00 +23°C° 0 mm 1 mps 706 mmHg 69%
    03:00 +22°C° 0 mm 1 mps 706 mmHg 71%
    04:00 +22°C° 0 mm 1 mps 706 mmHg 73%
    05:00 +21°C° 0 mm 1 mps 706 mmHg 76%
    06:00 +21°C° 0 mm 1 mps 706 mmHg 78%
    07:00 +24°C° 0 mm 1 mps 707 mmHg 68%
    08:00 +28°C° 0 mm 1 mps 708 mmHg 57%
    09:00 +31°C° 0 mm 1 mps 709 mmHg 47%
    10:00 +33°C° 0 mm 1 mps 708 mmHg 39%
    11:00 +36°C° 0 mm 2 mps 708 mmHg 32%
    12:00 +38°C° 0 mm 2 mps 708 mmHg 24%
    13:00 +38°C° 0 mm 2 mps 707 mmHg 23%
    14:00 +38°C° 0 mm 3 mps 706 mmHg 22%
    15:00 +38°C° 0 mm 3 mps 706 mmHg 20%
    16:00 +36°C° 0 mm 3 mps 706 mmHg 25%
    17:00 +34°C° 0 mm 2 mps 706 mmHg 30%
    18:00 +31°C° 0 mm 2 mps 706 mmHg 34%
    19:00 +29°C° 0 mm 2 mps 706 mmHg 39%
    20:00 +27°C° 0 mm 1 mps 707 mmHg 44%
    21:00 +26°C° 0 mm 1 mps 708 mmHg 49%
    22:00 +25°C° 0 mm 1 mps 708 mmHg 52%
    23:00 +24°C° 0 mm 1 mps 708 mmHg 54%

    6 April, Monday

    Time Temperature Precipitation Wind Pressure Humidity
    00:00 +23°C° 0 mm 1 mps 708 mmHg 56%
    01:00 +23°C° 0 mm 1 mps 707 mmHg 61%
    02:00 +22°C° 0 mm 1 mps 707 mmHg 65%
    03:00 +21°C° 0 mm 1 mps 707 mmHg 70%
    04:00 +21°C° 0 mm 1 mps 707 mmHg 74%
    05:00 +21°C° 0 mm 1 mps 708 mmHg 78%
    06:00 +20°C° 0 mm 1 mps 708 mmHg 82%
    07:00 +23°C° 0 mm 1 mps 708 mmHg 70%
    08:00 +26°C° 0 mm 2 mps 709 mmHg 57%
    09:00 +29°C° 0 mm 2 mps 710 mmHg 45%
    10:00 +31°C° 0 mm 3 mps 709 mmHg 37%
    11:00 +34°C° 0 mm 3 mps 709 mmHg 29%
    12:00 +37°C° 0 mm 4 mps 709 mmHg 21%
    13:00 +37°C° 0 mm 4 mps 708 mmHg 20%
    14:00 +37°C° 0 mm 4 mps 707 mmHg 20%
    15:00 +37°C° 0 mm 4 mps 706 mmHg 20%
    16:00 +35°C° 0 mm 3 mps 707 mmHg 26%
    17:00 +33°C° 0 mm 3 mps 707 mmHg 31%
    18:00 +30°C° 0 mm 2 mps 707 mmHg 37%
    19:00 +29°C° 0 mm 2 mps 707 mmHg 47%
    20:00 +27°C° 0 mm 2 mps 708 mmHg 57%
    21:00 +26°C° 0 mm 2 mps 709 mmHg 66%
    22:00 +25°C° 0 mm 2 mps 708 mmHg 73%
    23:00 +24°C° 0 mm 1 mps 708 mmHg 79%

    7 April, Tuesday

    Time Temperature Precipitation Wind Pressure Humidity
    00:00 +24°C° 0 mm 1 mps 708 mmHg 86%
    01:00 +23°C° 0 mm 1 mps 708 mmHg 89%
    02:00 +23°C° 0 mm 1 mps 708 mmHg 92%
    03:00 +22°C° 0 mm 1 mps 707 mmHg 95%
    04:00 +22°C° 0 mm 1 mps 708 mmHg 94%
    05:00 +22°C° 0 mm 1 mps 708 mmHg 94%
    06:00 +22°C° 0 mm 1 mps 708 mmHg 94%
    07:00 +24°C° 0 mm 2 mps 709 mmHg 85%
    08:00 +25°C° 0 mm 2 mps 709 mmHg 76%
    09:00 +27°C° 0 mm 3 mps 710 mmHg 67%
    10:00 +29°C° 0 mm 3 mps 709 mmHg 60%
    11:00 +31°C° 0 mm 3 mps 709 mmHg 53%
    12:00 +34°C° 0 mm 3 mps 709 mmHg 45%
    13:00 +34°C° 0 mm 4 mps 708 mmHg 44%
    14:00 +35°C° 0 mm 4 mps 707 mmHg 42%
    15:00 +35°C° 0 mm 4 mps 706 mmHg 40%
    16:00 +34°C° 0 mm 3 mps 707 mmHg 45%
    17:00 +31°C° 0 mm 3 mps 707 mmHg 49%
    18:00 +30°C° 0 mm 2 mps 707 mmHg 53%
    19:00 +28°C° 0 mm 2 mps 708 mmHg 59%
    20:00 +27°C° 0 mm 2 mps 708 mmHg 66%
    21:00 +26°C° 0 mm 2 mps 709 mmHg 73%
    22:00 +25°C° 0 mm 2 mps 708 mmHg 78%
    23:00 +24°C° 0 mm 2 mps 708 mmHg 83%

    8 April, Wednesday

    Time Temperature Precipitation Wind Pressure Humidity
    00:00 +23°C° 0 mm 2 mps 708 mmHg 88%
    01:00 +23°C° 0 mm 1 mps 708 mmHg 91%
    02:00 +22°C° 0 mm 1 mps 708 mmHg 93%
    03:00 +22°C° 0 mm 1 mps 707 mmHg 96%
    04:00 +22°C° 0 mm 1 mps 707 mmHg 96%
    05:00 +21°C° 0 mm 1 mps 708 mmHg 96%
    06:00 +21°C° 0 mm 1 mps 708 mmHg 96%
    07:00 +24°C° 0 mm 2 mps 709 mmHg 81%
    08:00 +27°C° 0 mm 2 mps 709 mmHg 66%
    09:00 +30°C° 0 mm 3 mps 710 mmHg 50%
    10:00 +33°C° 0 mm 3 mps 709 mmHg 44%
    11:00 +35°C° 0 mm 4 mps 709 mmHg 37%
    12:00 +37°C° 0 mm 4 mps 709 mmHg 30%
    13:00 +37°C° 0 mm 4 mps 708 mmHg 29%
    14:00 +37°C° 0 mm 4 mps 707 mmHg 28%
    15:00 +38°C° 0 mm 4 mps 706 mmHg 27%
    16:00 +36°C° 0 mm 4 mps 706 mmHg 33%
    17:00 +34°C° 0 mm 3 mps 706 mmHg 39%
    18:00 +31°C° 0 mm 3 mps 706 mmHg 45%
    19:00 +29°C° 0 mm 2 mps 707 mmHg 52%
    20:00 +28°C° 0 mm 2 mps 708 mmHg 58%
    21:00 +27°C° 0 mm 2 mps 708 mmHg 65%
    22:00 +26°C° 0 mm 2 mps 708 mmHg 71%
    23:00 +25°C° 0 mm 1 mps 708 mmHg 77%
    Show more